Weather in Basan

Ukraine / Zaporizhia Region     47°23′35″N   36°09′39″E
temp.,
°C
wind,
m/s
gust,
m/s
humid.,
%
clouds,
%
prec.,
mm/h
press.,
hPa
HPBL,
m
15 august, mon
mon1500:00+29ene8162235 0.0 1005666
03:00+26ene7153099 0.1 1006481
06:00+25e61438100 0.5 1006431
09:00+29ese9122872 1.0 1006797
12:00+34ese10132092 0.1 10061957
15:00+36se89175 0.1 10052663
18:00+35se68214 0.1 10042479
21:00+27ssw41042100 0.1 1006193
16 august, tue
tue1600:00+24nne346987 0.0 100794
03:00+23ene2270100 0.1 100644
06:00+21wsw5886100 2.3 1008308
09:00+24e47670 5.4 1009805
12:00+30sse454227 0.2 10091795
15:00+32wsw453499 0.2 10082720
18:00+31wsw443755 0.0 10081988
21:00+25ssw36575 0.0 1010123
17 august, wed
wed1700:00+22ssw35683 0.0 1010112
03:00+21w2380100 0.0 101049
06:00+22w2271100 0.0 101022
09:00+27wnw22511 0.0 1010625
12:00+31sw33370 0.0 10092041
15:00+33wsw432926 0.0 10092875
18:00+33wsw33272 0.0 10082507
21:00+25w48521 0.2 1010176
18 august, thu
thu1800:00+21n23720 0.0 100959
03:00+20nne22790 0.0 100921
06:00+20ne11755 0.0 100913
09:00+27nnw0050100 0.0 1009360
12:00+31wsw3337100 0.0 10081621
15:00+34wsw432986 0.0 10073170
18:00+33ssw222839 0.0 10072438
21:00+24nw576233 1.1 1009234
19 august, fri
fri1900:00+22ese336613 0.6 100836
03:00+21wsw11685 0.7 100811
06:00+20ene22765 1.1 100922
09:00+26ese11510 1.1 1009395
12:00+31sw23360 0.0 10081837
15:00+31s2338100 0.3 10081020
18:00+30sw563813 0.3 1008849
21:00+24nnw22613 0.3 100937